GW3799 Weather Reports


Display with metric or nautical units.
time (UTC)temp
F
wind
direction
speed
MPH
gust
MPH
rain 1hr
in
rain 24hr
in
rain mn
in
humidity
%
barometer
mb
20260510153105 64 55 0.0 3.0 0.00 0.23 0.05 77 1013.0
20260510152602 64 14 0.0 3.0 0.00 0.23 0.05 78 1013.0
20260510152056 63 57 0.0 2.0 0.00 0.23 0.05 79 1012.9
20260510151557 62 24 1.0 2.0 0.00 0.23 0.05 80 1012.9
20260510151056 62 76 0.0 2.0 0.00 0.23 0.05 80 1012.9
20260510150555 61 22 0.0 2.0 0.00 0.23 0.05 83 1012.9
20260510150056 61 27 0.0 2.0 0.00 0.23 0.05 83 1013.0
20260510145555 61 0 0.0 2.0 0.00 0.23 0.05 83 1013.0
20260510145056 60 0 0.0 2.0 0.00 0.23 0.05 84 1013.2
20260510144556 60 360 0.0 2.0 0.00 0.23 0.05 85 1013.2
20260510144055 59 0 0.0 2.0 0.00 0.23 0.05 86 1013.2
20260510143555 59 0 0.0 2.0 0.00 0.23 0.05 86 1013.1
20260510143104 59 0 0.0 2.0 0.00 0.23 0.05 87 1013.0
20260510142557 58 292 0.0 2.0 0.00 0.23 0.05 87 1013.0
20260510142055 58 88 0.0 2.0 0.00 0.23 0.05 88 1013.0
20260510141556 57 0 0.0 2.0 0.00 0.23 0.05 89 1013.0
20260510141056 57 211 0.0 2.0 0.00 0.23 0.05 89 1013.1
20260510140556 57 240 0.0 2.0 0.00 0.23 0.05 90 1013.0
20260510140056 56 261 0.0 2.0 0.00 0.23 0.05 89 1012.8
20260510135555 56 0 0.0 2.0 0.00 0.23 0.05 90 1012.9
20260510135055 56 223 0.0 2.0 0.00 0.23 0.05 90 1012.9
20260510134604 56 0 0.0 2.0 0.00 0.23 0.05 91 1013.0
20260510134055 56 0 0.0 3.0 0.00 0.23 0.05 91 1012.9
20260510133556 55 360 0.0 3.0 0.00 0.23 0.05 91 1012.9
20260510133057 55 0 0.0 2.0 0.00 0.23 0.05 92 1012.9
20260510132556 55 306 0.0 2.0 0.00 0.23 0.05 92 1012.9
20260510132057 55 303 0.0 2.0 0.00 0.23 0.05 92 1012.9
20260510131554 55 0 0.0 2.0 0.00 0.23 0.05 93 1012.9
20260510131056 54 0 0.0 2.0 0.00 0.23 0.05 93 1012.8
20260510130557 54 0 0.0 2.0 0.00 0.23 0.05 93 1012.8
20260510130057 54 0 0.0 2.0 0.00 0.23 0.05 93 1012.7
20260510125557 54 360 0.0 2.0 0.00 0.23 0.05 93 1012.5
20260510125053 53 79 0.0 2.0 0.00 0.23 0.05 93 1012.5
20260510124557 53 0 0.0 2.0 0.00 0.23 0.05 94 1012.4
20260510124056 53 0 0.0 2.0 0.00 0.23 0.05 93 1012.5
20260510123554 53 0 0.0 2.0 0.00 0.23 0.05 93 1012.4
20260510123056 53 240 0.0 2.0 0.00 0.23 0.05 93 1012.4
20260510122556 53 240 0.0 2.0 0.00 0.23 0.05 93 1012.3
20260510122053 53 0 0.0 2.0 0.00 0.23 0.05 94 1012.4
20260510121558 53 0 0.0 2.0 0.00 0.23 0.05 93 1012.5
20260510121056 53 214 0.0 2.0 0.00 0.23 0.05 93 1012.3
20260510120556 52 0 0.0 2.0 0.00 0.23 0.05 94 1012.0
20260510115556 52 263 0.0 2.0 0.01 0.23 0.05 94 1012.0
20260510115056 52 0 0.0 2.0 0.01 0.23 0.05 94 1012.0
20260510114558 52 247 0.0 2.0 0.01 0.23 0.05 94 1012.0
20260510114056 52 0 0.0 2.0 0.01 0.23 0.05 94 1012.0
20260510113557 52 0 0.0 2.0 0.01 0.23 0.05 94 1012.0
20260510113058 52 0 0.0 2.0 0.01 0.23 0.05 94 1011.9
20260510112556 52 0 0.0 2.0 0.01 0.23 0.05 94 1011.9
20260510112057 52 0 0.0 2.0 0.01 0.23 0.05 94 1011.9
20260510111555 52 0 0.0 2.0 0.01 0.23 0.05 94 1011.9
20260510111057 52 0 0.0 2.0 0.01 0.23 0.05 94 1011.9
20260510110557 51 242 0.0 2.0 0.01 0.23 0.05 94 1011.6
20260510110056 51 223 0.0 2.0 0.00 0.22 0.04 94 1011.5
20260510105556 51 0 0.0 2.0 0.00 0.22 0.04 94 1011.6
20260510105056 51 232 0.0 2.0 0.00 0.22 0.04 94 1011.5
20260510104555 51 0 0.0 0.0 0.00 0.22 0.04 94 1011.4
20260510104058 51 0 0.0 2.0 0.00 0.22 0.04 94 1011.4
20260510103556 51 0 0.0 2.0 0.00 0.22 0.04 94 1011.4
20260510103056 51 232 0.0 2.0 0.00 0.22 0.04 94 1011.5
20260510102556 51 0 0.0 0.0 0.00 0.22 0.04 94 1011.4
20260510102057 51 0 0.0 2.0 0.00 0.22 0.04 94 1011.3
20260510101600 51 0 0.0 2.0 0.00 0.22 0.04 94 1011.4
20260510101057 51 0 0.0 2.0 0.00 0.22 0.04 94 1011.4
20260510100559 51 0 0.0 2.0 0.00 0.22 0.04 94 1011.3
20260510100130 51 0 0.0 2.0 0.00 0.22 0.04 94 1011.4
20260510095600 51 0 0.0 2.0 0.00 0.22 0.04 94 1011.5
20260510095056 51 0 0.0 2.0 0.00 0.22 0.04 94 1011.5
20260510094558 51 0 0.0 2.0 0.01 0.22 0.04 94 1011.5
20260510094059 51 0 0.0 2.0 0.01 0.22 0.04 94 1011.4
20260510093557 51 104 0.0 2.0 0.01 0.22 0.04 94 1011.4
20260510093101 51 0 0.0 2.0 0.01 0.22 0.04 94 1011.3
20260510092555 51 0 0.0 2.0 0.01 0.22 0.04 94 1011.4
20260510092059 51 351 0.0 2.0 0.01 0.22 0.04 94 1011.5
20260510091559 51 0 0.0 2.0 0.01 0.22 0.04 94 1011.5
20260510091057 51 0 0.0 2.0 0.01 0.22 0.04 93 1011.7
20260510090557 51 0 0.0 2.0 0.01 0.22 0.04 94 1011.7
20260510090101 51 0 0.0 2.0 0.01 0.22 0.04 94 1011.8
20260510085559 51 0 0.0 2.0 0.01 0.22 0.04 94 1011.9
20260510085056 51 0 0.0 2.0 0.01 0.22 0.04 94 1011.9
20260510084556 51 0 0.0 2.0 0.00 0.21 0.03 94 1012.0
20260510084057 51 273 0.0 2.0 0.00 0.21 0.03 94 1012.0
20260510083557 51 0 1.0 2.0 0.00 0.21 0.03 94 1011.9
20260510083102 51 265 0.0 2.0 0.00 0.21 0.03 94 1011.8
20260510082553 51 0 0.0 2.0 0.00 0.21 0.03 94 1011.9
20260510082053 52 249 0.0 2.0 0.00 0.21 0.03 93 1012.0
20260510081555 52 9 0.0 2.0 0.01 0.21 0.03 94 1011.7
20260510081056 52 242 0.0 2.0 0.01 0.21 0.03 94 1011.9
20260510080557 52 0 0.0 2.0 0.01 0.21 0.03 94 1011.7
20260510080059 52 248 0.0 2.0 0.01 0.21 0.03 94 1011.4
20260510075553 52 305 0.0 2.0 0.01 0.21 0.03 94 1011.1
20260510075057 52 0 0.0 2.0 0.01 0.21 0.03 94 1011.0
20260510074557 52 0 0.0 0.0 0.01 0.21 0.03 94 1011.0
20260510074056 52 0 0.0 0.0 0.01 0.21 0.03 94 1010.9
20260510073557 52 0 0.0 1.0 0.01 0.21 0.03 94 1011.0
20260510073056 52 0 0.0 1.0 0.01 0.21 0.03 94 1010.8
20260510072557 52 294 0.0 2.0 0.01 0.21 0.03 94 1010.9
20260510072057 52 0 0.0 2.0 0.01 0.21 0.03 94 1010.9
20260510071600 52 0 0.0 2.0 0.00 0.20 0.02 94 1010.9
20260510071057 52 0 0.0 2.0 0.00 0.20 0.02 94 1010.9
20260510070556 52 0 0.0 1.0 0.00 0.20 0.02 94 1011.0
20260510070101 52 0 0.0 2.0 0.01 0.20 0.02 94 1010.9
20260510065554 52 0 0.0 2.0 0.01 0.20 0.02 94 1011.1
20260510065056 52 0 0.0 2.0 0.01 0.20 0.02 93 1011.2
20260510064558 52 0 0.0 2.0 0.01 0.20 0.02 94 1011.1
20260510064054 52 0 0.0 2.0 0.01 0.20 0.02 94 1011.2
20260510063556 52 252 0.0 2.0 0.01 0.20 0.02 94 1011.2
20260510063055 52 0 0.0 2.0 0.01 0.20 0.02 94 1011.1
20260510062557 52 0 0.0 1.0 0.01 0.20 0.02 94 1011.1
20260510062100 52 0 0.0 2.0 0.01 0.20 0.02 94 1011.1
20260510061558 52 0 0.0 2.0 0.01 0.20 0.02 93 1010.9
20260510061057 52 0 0.0 2.0 0.01 0.20 0.02 93 1010.7
20260510060557 52 0 0.0 2.0 0.01 0.20 0.02 93 1010.5
20260510060058 52 228 0.0 2.0 0.00 0.19 0.01 93 1010.6
20260510055557 52 201 0.0 2.0 0.01 0.19 0.01 93 1010.7
20260510055057 52 0 0.0 2.0 0.01 0.19 0.01 93 1010.7
20260510054556 52 0 0.0 2.0 0.01 0.19 0.01 93 1010.8
20260510054056 52 0 0.0 2.0 0.01 0.19 0.01 93 1010.7
20260510053553 52 190 0.0 1.0 0.01 0.19 0.01 93 1010.7
20260510053057 52 0 0.0 0.0 0.01 0.19 0.01 93 1010.7
20260510052556 52 0 0.0 0.0 0.01 0.19 0.01 93 1010.7
20260510052058 52 0 0.0 0.0 0.01 0.19 0.01 93 1010.7
20260510051558 52 0 0.0 2.0 0.01 0.19 0.01 93 1010.8
20260510051056 51 0 0.0 2.0 0.01 0.19 0.01 93 1010.8
20260510050557 51 0 0.0 2.0 0.01 0.19 0.01 93 1010.9
20260510050055 51 0 0.0 0.0 0.01 0.19 0.01 93 1010.9
20260510045557 51 0 0.0 0.0 0.00 0.18 0.00 93 1010.9
20260510045057 51 0 0.0 0.0 0.01 0.18 0.00 93 1010.9
20260510044559 51 0 0.0 0.0 0.01 0.18 0.00 93 1010.9
20260510044059 51 0 0.0 0.0 0.01 0.18 0.00 93 1011.0
20260510043557 51 0 0.0 0.0 0.01 0.18 0.00 93 1011.0
20260510043059 51 0 0.0 0.0 0.01 0.18 0.00 93 1011.1
20260510042559 51 0 0.0 0.0 0.01 0.18 0.00 93 1011.0
20260510042056 51 0 0.0 0.0 0.01 0.18 0.00 93 1011.0
20260510041558 51 0 0.0 2.0 0.01 0.18 0.00 93 1011.0
20260510041055 51 0 0.0 2.0 0.01 0.18 0.00 93 1011.0
20260510040557 51 0 0.0 2.0 0.01 0.18 0.00 93 1010.9
20260510035558 51 0 0.0 0.0 0.01 0.18 0.18 93 1010.8
20260510035053 51 0 0.0 0.0 0.01 0.17 0.17 92 1010.9
20260510034611 51 0 0.0 0.0 0.01 0.17 0.17 92 1010.7
20260510034058 51 0 0.0 0.0 0.01 0.17 0.17 92 1010.7
20260510033554 51 0 0.0 0.0 0.01 0.17 0.17 92 1010.6
20260510033124 51 0 0.0 0.0 0.01 0.17 0.17 92 1010.6
20260510032559 51 0 0.0 0.0 0.01 0.17 0.17 92 1010.6
20260510032101 51 0 0.0 2.0 0.01 0.17 0.17 92 1010.7
20260510031600 51 0 0.0 2.0 0.01 0.17 0.17 92 1010.6
20260510031056 51 0 0.0 2.0 0.01 0.17 0.17 92 1010.5
20260510030557 51 0 0.0 2.0 0.01 0.17 0.17 92 1010.6
20260510030107 51 0 0.0 0.0 0.01 0.17 0.17 92 1010.6
20260510025557 51 0 0.0 2.0 0.02 0.17 0.17 92 1010.6
20260510025056 51 0 0.0 2.0 0.01 0.16 0.16 92 1010.6
20260510024602 51 0 0.0 0.0 0.01 0.16 0.16 92 1010.5
20260510024112 52 0 0.0 2.0 0.01 0.16 0.16 92 1010.6
20260510023556 52 0 0.0 2.0 0.01 0.16 0.16 92 1010.6
20260510023055 52 0 0.0 1.0 0.01 0.16 0.16 92 1010.6
20260510022557 52 0 0.0 2.0 0.01 0.16 0.16 92 1010.7
20260510022057 52 0 0.0 2.0 0.01 0.16 0.16 92 1010.6
20260510021555 52 0 0.0 1.0 0.01 0.16 0.16 92 1010.8
20260510021054 51 0 0.0 1.0 0.02 0.16 0.16 92 1010.8
20260510020554 51 0 0.0 0.0 0.02 0.16 0.16 92 1010.7
20260510020057 51 0 0.0 0.0 0.02 0.16 0.16 92 1010.8
20260510015557 51 0 0.0 0.0 0.01 0.15 0.15 92 1010.6
20260510015057 51 0 0.0 0.0 0.01 0.15 0.15 92 1010.6
20260510014554 51 0 0.0 0.0 0.01 0.15 0.15 91 1010.6
20260510014057 51 0 0.0 0.0 0.01 0.15 0.15 91 1010.6
20260510013557 51 0 0.0 1.0 0.01 0.15 0.15 91 1010.7
20260510013056 51 0 0.0 1.0 0.02 0.15 0.15 91 1010.7
20260510012559 52 0 0.0 0.0 0.02 0.15 0.15 90 1010.7
20260510012058 52 0 0.0 0.0 0.02 0.15 0.15 91 1010.7
20260510011559 52 0 0.0 0.0 0.02 0.15 0.15 90 1010.6
20260510011057 52 0 0.0 0.0 0.01 0.14 0.14 90 1010.4
20260510010557 52 0 0.0 0.0 0.01 0.14 0.14 90 1010.3
20260510010055 52 0 0.0 0.0 0.02 0.14 0.14 90 1010.3
20260510005558 53 0 0.0 0.0 0.02 0.14 0.14 90 1010.2
20260510005056 53 0 0.0 0.0 0.02 0.14 0.14 90 1010.2
20260510004559 53 0 0.0 0.0 0.02 0.14 0.14 90 1010.3
20260510004100 53 0 0.0 2.0 0.02 0.14 0.14 90 1010.2
20260510003558 53 0 0.0 2.0 0.03 0.14 0.14 89 1010.2
20260510003111 54 0 0.0 2.0 0.02 0.13 0.13 89 1010.1
20260510002557 54 0 0.0 2.0 0.02 0.13 0.13 89 1010.1
20260510002058 54 0 0.0 0.0 0.02 0.13 0.13 89 1010.1
20260510001554 54 0 0.0 0.0 0.02 0.13 0.13 89 1010.2
20260510001058 55 0 0.0 0.0 0.03 0.13 0.13 89 1010.1
20260510000600 55 0 0.0 2.0 0.03 0.13 0.13 89 1010.2
20260509235557 55 0 0.0 0.0 0.02 0.12 0.12 89 1009.9
20260509235057 55 0 0.0 1.0 0.03 0.12 0.12 89 1010.0
20260509234604 55 0 0.0 1.0 0.03 0.12 0.12 88 1009.9
20260509234055 55 0 0.0 2.0 0.03 0.12 0.12 88 1009.9
20260509233558 55 0 0.0 2.0 0.02 0.11 0.11 88 1009.8
20260509233055 56 98 0.0 2.0 0.03 0.11 0.11 88 1009.6
20260509232556 56 0 0.0 2.0 0.03 0.11 0.11 88 1009.6
20260509232054 56 0 0.0 2.0 0.03 0.11 0.11 89 1009.6
20260509231558 56 0 0.0 2.0 0.03 0.11 0.11 89 1009.8
20260509231056 56 94 1.0 2.0 0.03 0.10 0.10 88 1009.7
20260509230557 56 181 0.0 2.0 0.03 0.10 0.10 89 1009.8
20260509230105 56 233 0.0 2.0 0.03 0.10 0.10 89 1009.7
20260509225557 56 17 0.0 2.0 0.04 0.10 0.10 89 1009.8
20260509225057 56 0 0.0 2.0 0.03 0.09 0.09 89 1009.9
20260509224558 56 0 0.0 2.0 0.03 0.09 0.09 89 1010.1
20260509224057 56 0 0.0 2.0 0.04 0.09 0.09 90 1010.1
20260509223557 56 161 0.0 2.0 0.04 0.09 0.09 90 1010.2
20260509223102 56 205 0.0 2.0 0.03 0.08 0.08 90 1010.2
20260509222556 55 106 0.0 2.0 0.04 0.08 0.08 90 1010.1
20260509222057 55 23 0.0 2.0 0.04 0.08 0.08 90 1010.2
20260509221558 55 0 0.0 2.0 0.04 0.08 0.08 89 1010.2
20260509221057 55 29 0.0 2.0 0.04 0.07 0.07 90 1010.2
20260509220556 55 13 0.0 2.0 0.04 0.07 0.07 90 1010.2
20260509220057 55 43 0.0 2.0 0.04 0.07 0.07 89 1010.2
20260509215557 55 0 0.0 2.0 0.03 0.06 0.06 89 1010.2
20260509215057 55 0 0.0 2.0 0.03 0.06 0.06 89 1010.4
20260509214557 55 0 0.0 2.0 0.04 0.06 0.06 89 1010.6
20260509214056 55 0 0.0 2.0 0.03 0.05 0.05 88 1010.4
20260509213556 55 0 0.0 2.0 0.03 0.05 0.05 88 1010.6
20260509213100 56 0 0.0 2.0 0.03 0.05 0.05 88 1010.5
20260509212557 56 0 0.0 2.0 0.02 0.04 0.04 87 1010.4
20260509212058 56 0 0.0 2.0 0.02 0.04 0.04 87 1010.6
20260509211604 56 0 0.0 2.0 0.02 0.04 0.04 87 1010.4
20260509211058 56 230 0.0 2.0 0.01 0.03 0.03 86 1010.4
20260509210600 56 0 0.0 2.0 0.01 0.03 0.03 86 1010.5
20260509205556 56 0 0.0 2.0 0.01 0.03 0.03 85 1010.3
20260509205056 56 113 0.0 2.0 0.02 0.03 0.03 85 1010.2
20260509204601 56 0 0.0 2.0 0.01 0.02 0.02 85 1010.1
20260509204057 57 0 0.0 2.0 0.01 0.02 0.02 85 1010.5
20260509203556 57 279 0.0 2.0 0.01 0.02 0.02 85 1010.3
20260509203059 57 0 0.0 2.0 0.01 0.02 0.02 84 1010.4
20260509202600 57 0 0.0 2.0 0.01 0.02 0.02 84 1010.5
20260509202057 57 0 0.0 2.0 0.01 0.02 0.02 84 1010.5
20260509201555 57 0 0.0 2.0 0.01 0.02 0.02 85 1010.5
20260509201056 57 0 0.0 2.0 0.01 0.02 0.02 84 1010.5
20260509200557 57 215 0.0 2.0 0.01 0.02 0.02 83 1010.7
20260509195558 57 282 0.0 2.0 0.01 0.02 0.02 83 1010.7
20260509195057 58 240 0.0 4.0 0.00 0.01 0.01 82 1010.8
20260509194556 58 304 0.0 4.0 0.00 0.01 0.01 81 1010.8
20260509194057 58 0 1.0 5.0 0.00 0.01 0.01 80 1011.0
20260509193556 58 0 1.0 5.0 0.00 0.01 0.01 79 1011.1
20260509193055 59 303 1.0 4.0 0.00 0.01 0.01 78 1010.9
20260509192556 59 291 1.0 3.0 0.00 0.01 0.01 78 1010.9
20260509192057 59 145 0.0 3.0 0.00 0.01 0.01 78 1010.6
20260509191557 59 360 0.0 3.0 0.00 0.01 0.01 78 1010.8
20260509191056 59 208 1.0 3.0 0.00 0.01 0.01 77 1010.8
20260509190556 59 242 0.0 2.0 0.00 0.01 0.01 78 1010.6
20260509190058 59 276 0.0 2.0 0.00 0.01 0.01 78 1010.7
20260509185554 59 278 0.0 2.0 0.00 0.01 0.01 79 1010.8
20260509185057 58 228 0.0 2.0 0.01 0.01 0.01 77 1010.8
20260509184556 59 246 1.0 2.0 0.01 0.01 0.01 78 1010.9
20260509184053 59 234 0.0 2.0 0.01 0.01 0.01 78 1010.8
20260509183556 59 0 0.0 4.0 0.01 0.01 0.01 79 1010.7
20260509183136 59 0 0.0 4.0 0.01 0.01 0.01 79 1010.6
20260509182554 59 242 1.0 5.0 0.01 0.01 0.01 77 1010.9
20260509182055 59 214 0.0 5.0 0.01 0.01 0.01 77 1010.9
20260509181612 60 168 2.0 5.0 0.01 0.01 0.01 77 1011.1
20260509181055 60 195 2.0 5.0 0.01 0.01 0.01 78 1011.1
20260509180556 60 220 0.0 3.0 0.01 0.01 0.01 77 1011.1
20260509180057 61 205 1.0 6.0 0.01 0.01 0.01 77 1010.9
20260509175555 61 195 1.0 6.0 0.01 0.01 0.01 75 1011.0
20260509175057 62 242 2.0 6.0 0.00 0.00 0.00 73 1011.1
20260509174554 63 190 1.0 3.0 0.00 0.00 0.00 69 1011.1
20260509174055 63 219 0.0 2.0 0.00 0.00 0.00 70 1010.7
20260509173600 64 253 0.0 2.0 0.00 0.00 0.00 68 1010.6
20260509173104 64 12 0.0 2.0 0.00 0.00 0.00 68 1010.5
20260509172555 64 0 0.0 2.0 0.00 0.00 0.00 65 1010.4
20260509172056 65 261 1.0 2.0 0.00 0.00 0.00 61 1010.4
20260509171601 65 360 1.0 2.0 0.00 0.00 0.00 61 1010.4
20260509171057 65 53 1.0 4.0 0.00 0.00 0.00 60 1010.4
20260509170555 65 196 1.0 4.0 0.00 0.00 0.00 61 1010.5
20260509170109 65 0 1.0 3.0 0.00 0.00 0.00 61 1010.5
20260509165555 65 296 1.0 2.0 0.00 0.00 0.00 62 1010.7
20260509165056 64 299 0.0 3.0 0.00 0.00 0.00 62 1010.6
20260509164602 64 0 0.0 3.0 0.00 0.00 0.00 64 1010.6
20260509164055 64 242 0.0 2.0 0.00 0.00 0.00 63 1010.6
20260509163554 64 251 0.0 2.0 0.00 0.00 0.00 62 1010.8
20260509163103 65 360 0.0 2.0 0.00 0.00 0.00 61 1010.7
20260509162556 65 237 1.0 3.0 0.00 0.00 0.00 60 1010.9
20260509162055 65 211 1.0 3.0 0.00 0.00 0.00 61 1011.0
20260509161558 65 0 1.0 4.0 0.00 0.00 0.00 61 1011.2
20260509161055 65 53 1.0 5.0 0.00 0.00 0.00 61 1011.1
20260509160556 64 69 1.0 5.0 0.00 0.00 0.00 62 1011.2
20260509160100 64 245 0.0 3.0 0.00 0.00 0.00 63 1011.2
20260509155555 64 216 1.0 3.0 0.00 0.00 0.00 63 1011.2
20260509155055 64 272 1.0 3.0 0.00 0.00 0.00 63 1011.5
20260509154616 64 32 1.0 4.0 0.00 0.00 0.00 63 1011.4
20260509154055 64 280 1.0 4.0 0.00 0.00 0.00 64 1011.3
20260509153555 63 233 1.0 3.0 0.00 0.00 0.00 66 1011.4